Flag for Sweden Weather past 2 weeks in Stockholm, Sweden

Now
66 °F

Scattered clouds.


Feels Like: 66 °F
Forecast: 53 / 63 °F
Wind: 17 mph from North

Location: Stockholm Bromma Airport

Current Time: Aug 27, 2014 at 1:49:45 PM

Latest Report: Aug 27, 2014 at 1:20 PM


Visibility: N/A

Pressure: 29.68 "Hg

Humidity: 49%

Dew point: 46 °F

Location of StockholmLocation

Historic Weather in Stockholm — Graph

°F

Stockholm temperature yesterday

Maximum temperature yesterday: 57 °F (at 4:20 PM)
Minimum temperature yesterday: 50 °F (at 12:20 AM)
Average temperature yesterday: 54 °F

Past Weeks' High & Low Weather Summary

 TemperatureHumidityPressure
High72 °F (Aug 15, 4:20 PM)100% (Aug 14, 3:50 AM)29.74 "Hg (Aug 14, 3:50 AM)
Low45 °F (Aug 25, 4:20 AM)46% (Aug 12, 1:20 PM)29.30 "Hg (Aug 18, 6:50 PM)
Average58 °F80%29.59 "Hg
* Reported Aug 12 12:20 PM — Aug 27 12:20 PM, Stockholm, Weather by CustomWeather, © 2014

Note: Actual official high and low records may vary slightly from our data, if they occured in-between our weather recording intervals... More about our weather records

Advertising

Stockholm weather history for previous 24 hours

 ConditionsComfort  
Time TempWeatherWind HumidityBarometerVisibility
12:20 PM
Aug 27
64 °FPassing clouds.16 mph56%29.68 "HgN/A
11:50 AM64 °FPassing clouds.17 mph56%29.68 "HgN/A
11:20 AM63 °FPassing clouds.15 mph59%29.68 "HgN/A
10:50 AM63 °FPassing clouds.13 mph59%29.68 "HgN/A
10:20 AM61 °FSunny.14 mph63%29.68 "Hg10 mi
9:50 AM59 °FSunny.13 mph68%29.68 "Hg10 mi
9:20 AM59 °FSunny.13 mph68%29.68 "Hg10 mi
8:50 AM57 °FSunny.12 mph72%29.68 "Hg10 mi
8:20 AM57 °FSunny.10 mph72%29.65 "Hg10 mi
7:50 AM55 °FSunny.12 mph77%29.65 "Hg10 mi
7:20 AM54 °FSunny.9 mph77%29.65 "Hg10 mi
6:50 AM52 °FSunny.10 mph82%29.65 "Hg10 mi
6:20 AM52 °FClear.8 mph82%29.65 "Hg10 mi
5:50 AM52 °FClear.8 mph82%29.65 "Hg10 mi
5:20 AM52 °FCool.9 mph82%29.65 "HgN/A
4:50 AM52 °FCool.8 mph88%29.65 "HgN/A
4:20 AM54 °FCool.10 mph82%29.65 "HgN/A
3:50 AM54 °FCool.8 mph82%29.65 "HgN/A
3:20 AM54 °FCool.9 mph82%29.62 "HgN/A
2:20 AM54 °FCool.8 mph82%29.62 "HgN/A
1:50 AM55 °FPassing clouds.9 mph77%29.62 "HgN/A
1:20 AM55 °FPassing clouds.10 mph82%29.62 "HgN/A
12:50 AM55 °FPassing clouds.9 mph82%29.62 "HgN/A
12:20 AM55 °FPassing clouds.9 mph82%29.62 "HgN/A
11:50 PM
Aug 26
57 °FPassing clouds.10 mph77%29.62 "HgN/A
11:20 PM57 °FPassing clouds.10 mph77%29.62 "HgN/A
10:50 PM55 °FPassing clouds.12 mph88%29.62 "HgN/A
10:20 PM55 °FPartly cloudy.10 mph88%29.62 "HgN/A
9:50 PM57 °FOvercast.10 mph82%29.62 "HgN/A
9:20 PM57 °FMostly cloudy.12 mph82%29.59 "HgN/A
8:50 PM57 °FScattered clouds.13 mph82%29.59 "HgN/A
8:20 PM57 °FMore clouds than sun.14 mph82%29.59 "HgN/A
7:50 PM55 °FDrizzle. Cloudy.13 mph88%29.59 "HgN/A
7:20 PM55 °FCloudy.14 mph88%29.59 "HgN/A
6:50 PM55 °FLight rain. More clouds than sun.14 mph94%29.59 "HgN/A
6:20 PM55 °FLight rain. Mostly cloudy.15 mph94%29.59 "HgN/A
5:50 PM55 °FLight rain. Mostly cloudy.13 mph94%29.59 "HgN/A
5:20 PM57 °FLight rain. Partly sunny.14 mph88%29.59 "HgN/A
4:50 PM57 °FLight rain. Partly sunny.14 mph88%29.59 "HgN/A
4:20 PM57 °FPartly sunny.13 mph88%29.59 "HgN/A
3:50 PM55 °FBroken clouds.13 mph94%29.59 "HgN/A
3:20 PM55 °FLight rain. Mostly cloudy.13 mph94%29.59 "HgN/A
2:50 PM55 °FPartly sunny.13 mph94%29.59 "HgN/A
2:20 PM55 °FDrizzle. Partly sunny.13 mph94%29.59 "HgN/A
1:50 PM55 °FLight rain. Partly sunny.12 mph94%29.59 "HgN/A
1:20 PM55 °FLight rain. Partly sunny.12 mph94%29.59 "HgN/A
Weather by CustomWeather, © 2014

See weather overviewHow to use our weather pages